Regional Weather Roundup
Issued by NWS Jackson, KY

Home | Current Version | Previous Version | Text Only | Print | Product List | Glossary On
Versions: 1 2 3 4 5 6 7 8 9 10 11 12 13 14 15 16 17 18 19 20 21 22 23 24 25 26 27 28 29 30 31 32 33 34 35 36 37 38 39 40 41 42 43 44 45 46 47 48 49 50
000
ASUS43 KJKL 281711
RWRJKL

EAST KENTUCKY HOURLY WEATHER ROUNDUP
NATIONAL WEATHER SERVICE JACKSON KY
1200 PM EST FRI NOV 28 2014

NOTE: "FAIR" INDICATES FEW OR NO CLOUDS BELOW 12,000 FEET WITH
NO SIGNIFICANT WEATHER AND/OR OBSTRUCTIONS TO VISIBILITY.

* THESE REPORTS ARE NOT UNDER NWS QUALITY CONTROL AND MAY NOT
  REPORT WEATHER SUCH AS PRECIPITATION AND FOG.

KYZ079-080-083-085-087-088-110-112-115-119-120-281800
...EASTERN KENTUCKY...

CITY           SKY/WX    TMP DP  RH WIND       PRES   REMARKS
JACKSON        SUNNY     32  17  54 S6        30.35F WCI  26
LONDON         SUNNY     32  18  56 VRB3      30.36F
SOMERSET*      SUNNY     32  19  59 S3        30.40F
MONTICELLO*    MOSUNNY   34  16  48 CALM      30.41F
HARLAN APT*    MOSUNNY   32  19  59 S3        30.35F
HAZARD APT*    SUNNY     32  18  55 CALM      30.36F
BLACK MTN*       N/A     21  21 100 S6          N/A  WCI  14
PIKEVILLE APT* CLOUDY    28  18  64 S5        30.34F WCI  23
BIG SANDY*     CLOUDY    30  18  60 SW5       30.36F WCI  25
MOREHEAD APT*  PTSUNNY   30  18  59 S6        30.39F WCI  24
$$

KYZ035-036-041-042-044-050-067-078-099-281800
...CENTRAL KENTUCKY...

CITY           SKY/WX    TMP DP  RH WIND       PRES   REMARKS
MT STERLING*   PTSUNNY   34  21  60 SW8       30.38F WCI  27
FLEMING/MASON* PTSUNNY   30  19  64 SW9       30.37F WCI  22
DANVILLE*      MOSUNNY   32  19  59 SW7       30.39F WCI  26
RICHMOND*      PTSUNNY   32  18  55 S7        30.37F WCI  26
LEXINGTON      CLOUDY    31  18  58 S9        30.36F WCI  23
FRANKFORT      PTSUNNY   31  18  58 S10       30.36F WCI  22
$$

KYZ091>093-OHZ055-061-077-WVZ005-015-034-035-042-281800
...SOUTHERN OHIO/WEST VIRGINIA...

CITY           SKY/WX    TMP DP  RH WIND       PRES   REMARKS
COVINGTON      CLOUDY    31  15  52 S12       30.32F WCI  22
COLUMBUS       CLOUDY    29  16  58 SW8       30.34F WCI  21
DAYTON         CLOUDY    29  18  63 S8        30.32F WCI  21
WILMINGTON     CLOUDY    29  19  66 S9        30.31F WCI  20
HUNTINGTON     CLOUDY    32  18  56 SW8       30.36F WCI  25
CHARLESTON     PTSUNNY   31  16  54 W8        30.36F WCI  23
PINEVILLE*     CLOUDY    31  22  71 MISG      30.38F
BECKLEY        LGT SNOW  24  18  77 W8        30.27F WCI  15
BLUEFIELD      CLOUDY    25  16  68 W7        30.26F WCI  17
$$

VAZ002-007-008-TNZ017-027-036-066-071-281800
...SOUTHWEST VIRGINIA/EAST TENNESSEE...

CITY           SKY/WX    TMP DP  RH WIND       PRES   REMARKS
WISE*          PTSUNNY   30  19  64 CALM      30.27F
JONESVILLE*    MOSUNNY   32  18  55 W5        30.39F WCI  27
ABINGDON*      CLOUDY    31  20  63 SW8       30.32F WCI  24
BRISTOL        MOSUNNY   33  21  61 VRB5      30.35F WCI  29
KNOXVILLE      MOSUNNY   35  22  58 S3        30.39F
OAK RIDGE      SUNNY     36  19  50 VRB5      30.41F WCI  32
CROSSVILLE     SUNNY     35  13  40 VRB5      30.33F WCI  31
NASHVILLE      SUNNY     38  19  46 SE8       30.40F WCI  32
$$

...KEY TO REMARKS...
VSB - VISIBILITY IN MILES
WCI - WIND CHILL INDEX
HX  - HEAT INDEX

$$


USA.gov is the U.S. government's official web portal to all federal, state and local government web resources and services.